Home   Weather   Yuba City   Past weeks
Flag for USA

Past Weather in Yuba City, California, USA — Yesterday and Last 2 Weeks

Now
55 °F

Clear.


Feels Like: 53 °F
Forecast: 73 / 47 °F
Wind: 7 mph from Southeast

Location: Yuba County Airport

Current Time: Oct 19, 2019 at 12:46:58 am

Latest Report: Oct 18, 2019 at 11:53 pm


Visibility: 10 mi

Pressure: 30.05 "Hg

Humidity: 69%

Dew Point: 45 °F

Location of Yuba CityLocation

Past Weather in Yuba City — Graph

°F

Yuba City Temperature Yesterday

Maximum temperature yesterday: 73 °F (at 2:53 pm)
Minimum temperature yesterday: 44 °F (at 5:53 am)
Average temperature yesterday: 59 °F

High & Low Weather Summary for the Past Weeks

 TemperatureHumidityPressure
High87 °F (Oct 7, 3:53 pm)90% (Oct 4, 4:53 am)30.16 "Hg (Oct 4, 4:53 am)
Low41 °F (Oct 12, 5:53 am)12% (Oct 10, 12:53 pm)29.77 "Hg (Oct 8, 7:53 pm)
Average62 °F45%29.97 "Hg
* Reported Oct 3 10:53 pm — Oct 18 10:53 pm, Yuba City. Weather by CustomWeather, © 2019

Note: Actual official high and low records may vary slightly from our data, if they occured in-between our weather recording intervals... More about our weather records

Advertising

Yuba City Weather History for the Previous 24 Hours

Scroll right to see more
 ConditionsComfort  
Time TempWeatherWind HumidityBarometerVisibility
10:53 pm
Fri, Oct 18
57 °FClear.9 mph64%30.05 "Hg10 mi
9:53 pm56 °FClear.7 mph67%30.04 "Hg10 mi
8:53 pm59 °FClear.6 mph62%30.03 "Hg10 mi
7:53 pm63 °FClear.8 mph54%30.01 "Hg10 mi
6:53 pm63 °FClear.3 mph54%30.00 "Hg10 mi
5:53 pm70 °FSunny.5 mph41%30.00 "Hg10 mi
4:53 pm73 °FSunny.7 mph36%30.00 "Hg10 mi
3:53 pm73 °FSunny.7 mph33%30.01 "Hg10 mi
2:53 pm73 °FSunny.7 mph33%30.01 "Hg10 mi
1:53 pm72 °FSunny.8 mph34%30.03 "Hg10 mi
12:53 pm68 °FSunny.No wind36%30.04 "Hg10 mi
11:53 am65 °FSunny.3 mph42%30.07 "Hg10 mi
10:53 am61 °FSunny.3 mph48%30.08 "Hg10 mi
9:53 am58 °FSunny.6 mph54%30.07 "Hg10 mi
8:53 am51 °FSunny.5 mph69%30.06 "Hg10 mi
7:53 am49 °FSunny.3 mph74%30.05 "Hg10 mi
6:53 am45 °FClear.No wind76%30.04 "Hg10 mi
5:53 am44 °FClear.3 mph79%30.03 "Hg10 mi
4:53 am50 °FClear.5 mph68%30.01 "Hg10 mi
3:53 am46 °FClear.3 mph73%30.03 "Hg10 mi
2:53 am50 °FClear.No wind63%30.03 "Hg10 mi
1:53 am53 °FClear.8 mph61%30.00 "Hg10 mi
12:53 am50 °FClear.3 mph63%30.01 "Hg10 mi
Weather by CustomWeather, © 2019

See weather overview